Year,Month,Day,Hour,Minute,Value (Times are PST for temperature in C)
2010,07,19,00,00,16.90
2010,07,19,00,01,16.90
2010,07,19,00,02,16.90
2010,07,19,00,03,16.80
2010,07,19,00,04,16.80
2010,07,19,00,05,16.70
2010,07,19,00,06,16.70
2010,07,19,00,07,16.70
2010,07,19,00,08,16.70
2010,07,19,00,09,16.70
2010,07,19,00,10,16.70
2010,07,19,00,11,16.70
2010,07,19,00,12,16.70
2010,07,19,00,13,16.60
2010,07,19,00,14,16.60
2010,07,19,00,15,16.60
2010,07,19,00,16,16.60
2010,07,19,00,17,16.60
2010,07,19,00,18,16.60
2010,07,19,00,19,16.60
2010,07,19,00,20,16.60
2010,07,19,00,21,16.60
2010,07,19,00,22,16.60
2010,07,19,00,23,16.50
2010,07,19,00,24,16.40
2010,07,19,00,25,16.40
2010,07,19,00,26,16.40
2010,07,19,00,27,16.40
2010,07,19,00,28,16.30
2010,07,19,00,29,16.30
2010,07,19,00,30,16.20
2010,07,19,00,31,16.20
2010,07,19,00,32,16.20
2010,07,19,00,33,16.20
2010,07,19,00,34,16.20
2010,07,19,00,35,16.20
2010,07,19,00,36,16.20
2010,07,19,00,37,16.10
2010,07,19,00,38,16.10
2010,07,19,00,39,16.10
2010,07,19,00,40,16.00
2010,07,19,00,41,15.90
2010,07,19,00,42,15.90
2010,07,19,00,43,15.80
2010,07,19,00,44,15.80
2010,07,19,00,45,15.80
2010,07,19,00,46,15.80
2010,07,19,00,47,15.80
2010,07,19,00,48,15.70
2010,07,19,00,49,15.70
2010,07,19,00,50,15.60
2010,07,19,00,51,15.60
2010,07,19,00,52,15.60
2010,07,19,00,53,15.50
2010,07,19,00,54,15.50
2010,07,19,00,55,15.50
2010,07,19,00,56,15.50
2010,07,19,00,57,15.40
2010,07,19,00,58,15.40
2010,07,19,00,59,15.40
2010,07,19,01,00,15.30
2010,07,19,01,01,15.30
2010,07,19,01,02,15.30
2010,07,19,01,03,15.30
2010,07,19,01,04,15.30
2010,07,19,01,05,15.30
2010,07,19,01,06,15.30
2010,07,19,01,07,15.30
2010,07,19,01,08,15.30
2010,07,19,01,09,15.30
2010,07,19,01,10,15.30
2010,07,19,01,11,15.30
2010,07,19,01,12,15.20
2010,07,19,01,13,15.20
2010,07,19,01,14,15.20
2010,07,19,01,15,15.20
2010,07,19,01,16,15.20
2010,07,19,01,17,15.20
2010,07,19,01,18,15.20
2010,07,19,01,19,15.20
2010,07,19,01,20,15.20
2010,07,19,01,21,15.20
2010,07,19,01,22,15.20
2010,07,19,01,23,15.20
2010,07,19,01,24,15.20
2010,07,19,01,25,15.20
2010,07,19,01,26,15.20
2010,07,19,01,27,15.20
2010,07,19,01,28,15.20
2010,07,19,01,29,15.10
2010,07,19,01,30,15.10
2010,07,19,01,31,15.10
2010,07,19,01,32,15.10
2010,07,19,01,33,15.10
2010,07,19,01,34,15.10
2010,07,19,01,35,15.10
2010,07,19,01,36,15.10
2010,07,19,01,37,15.10
2010,07,19,01,38,15.00
2010,07,19,01,39,15.00
2010,07,19,01,40,14.90
2010,07,19,01,41,14.90
2010,07,19,01,42,14.80
2010,07,19,01,43,14.80
2010,07,19,01,44,14.70
2010,07,19,01,45,14.60
2010,07,19,01,46,14.60
2010,07,19,01,47,14.60
2010,07,19,01,48,14.50
2010,07,19,01,49,14.40
2010,07,19,01,50,14.40
2010,07,19,01,51,14.30
2010,07,19,01,52,14.20
2010,07,19,01,53,14.20
2010,07,19,01,54,14.20
2010,07,19,01,55,14.20
2010,07,19,01,56,14.20
2010,07,19,01,57,14.20
2010,07,19,01,58,14.20
2010,07,19,01,59,14.20
2010,07,19,02,00,14.30
2010,07,19,02,01,14.30
2010,07,19,02,02,14.30
2010,07,19,02,03,14.30
2010,07,19,02,04,14.30
2010,07,19,02,05,14.30
2010,07,19,02,06,14.30
2010,07,19,02,07,14.30
2010,07,19,02,08,14.30
2010,07,19,02,09,14.30
2010,07,19,02,10,14.30
2010,07,19,02,11,14.20
2010,07,19,02,12,14.20
2010,07,19,02,13,14.20
2010,07,19,02,14,14.20
2010,07,19,02,15,14.20
2010,07,19,02,16,14.20
2010,07,19,02,17,14.10
2010,07,19,02,18,14.00
2010,07,19,02,19,13.90
2010,07,19,02,20,13.90
2010,07,19,02,21,13.80
2010,07,19,02,22,13.70
2010,07,19,02,23,13.70
2010,07,19,02,24,13.70
2010,07,19,02,25,13.60
2010,07,19,02,26,13.60
2010,07,19,02,27,13.50
2010,07,19,02,28,13.50
2010,07,19,02,29,13.40
2010,07,19,02,30,13.30
2010,07,19,02,31,13.30
2010,07,19,02,32,13.20
2010,07,19,02,33,13.20
2010,07,19,02,34,13.20
2010,07,19,02,35,13.10
2010,07,19,02,36,13.10
2010,07,19,02,37,13.10
2010,07,19,02,38,13.00
2010,07,19,02,39,13.00
2010,07,19,02,40,12.90
2010,07,19,02,41,12.90
2010,07,19,02,42,12.90
2010,07,19,02,43,12.90
2010,07,19,02,44,12.80
2010,07,19,02,45,12.80
2010,07,19,02,46,12.80
2010,07,19,02,47,12.80
2010,07,19,02,48,12.70
2010,07,19,02,49,12.70
2010,07,19,02,50,12.60
2010,07,19,02,51,12.60
2010,07,19,02,52,12.60
2010,07,19,02,53,12.50
2010,07,19,02,54,12.50
2010,07,19,02,55,12.50
2010,07,19,02,56,12.40
2010,07,19,02,57,12.40
2010,07,19,02,58,12.30
2010,07,19,02,59,12.30
2010,07,19,03,00,12.30
2010,07,19,03,01,12.30
2010,07,19,03,02,12.30
2010,07,19,03,03,12.20
2010,07,19,03,04,12.20
2010,07,19,03,05,12.20
2010,07,19,03,06,12.20
2010,07,19,03,07,12.20
2010,07,19,03,08,12.30
2010,07,19,03,09,12.30
2010,07,19,03,10,12.30
2010,07,19,03,11,12.30
2010,07,19,03,12,12.30
2010,07,19,03,13,12.30
2010,07,19,03,14,12.30
2010,07,19,03,15,12.30
2010,07,19,03,16,12.30
2010,07,19,03,17,12.30
2010,07,19,03,18,12.40
2010,07,19,03,19,12.40
2010,07,19,03,20,12.40
2010,07,19,03,21,12.40
2010,07,19,03,22,12.40
2010,07,19,03,23,12.40
2010,07,19,03,24,12.30
2010,07,19,03,25,12.30
2010,07,19,03,26,12.20
2010,07,19,03,27,12.20
2010,07,19,03,28,12.10
2010,07,19,03,29,12.10
2010,07,19,03,30,12.10
2010,07,19,03,31,12.10
2010,07,19,03,32,12.10
2010,07,19,03,33,12.00
2010,07,19,03,34,12.00
2010,07,19,03,35,12.00
2010,07,19,03,36,11.90
2010,07,19,03,37,11.80
2010,07,19,03,38,11.80
2010,07,19,03,39,11.80
2010,07,19,03,40,11.80
2010,07,19,03,41,11.80
2010,07,19,03,42,11.80
2010,07,19,03,43,11.80
2010,07,19,03,44,11.80
2010,07,19,03,45,11.80
2010,07,19,03,46,11.80
2010,07,19,03,47,11.70
2010,07,19,03,48,11.60
2010,07,19,03,49,11.60
2010,07,19,03,50,11.60
2010,07,19,03,51,11.60
2010,07,19,03,52,11.60
2010,07,19,03,53,11.60
2010,07,19,03,54,11.60
2010,07,19,03,55,11.60
2010,07,19,03,56,11.50
2010,07,19,03,57,11.40
2010,07,19,03,58,11.40
2010,07,19,03,59,11.50
2010,07,19,04,00,11.60
2010,07,19,04,01,11.60
2010,07,19,04,02,11.60
2010,07,19,04,03,11.60
2010,07,19,04,04,11.60
2010,07,19,04,05,11.60
2010,07,19,04,06,11.50
2010,07,19,04,07,11.40
2010,07,19,04,08,11.40
2010,07,19,04,09,11.40
2010,07,19,04,10,11.40
2010,07,19,04,11,11.40
2010,07,19,04,12,11.40
2010,07,19,04,13,11.40
2010,07,19,04,14,11.40
2010,07,19,04,15,11.40
2010,07,19,04,16,11.40
2010,07,19,04,17,11.40
2010,07,19,04,18,11.40
2010,07,19,04,19,11.40
2010,07,19,04,20,11.40
2010,07,19,04,21,11.40
2010,07,19,04,22,11.40
2010,07,19,04,23,11.40
2010,07,19,04,24,11.30
2010,07,19,04,25,11.30
2010,07,19,04,26,11.20
2010,07,19,04,27,11.20
2010,07,19,04,28,11.20
2010,07,19,04,29,11.10
2010,07,19,04,30,11.10
2010,07,19,04,31,11.10
2010,07,19,04,32,11.10
2010,07,19,04,33,11.10
2010,07,19,04,34,11.10
2010,07,19,04,35,11.10
2010,07,19,04,36,11.10
2010,07,19,04,37,11.10
2010,07,19,04,38,11.10
2010,07,19,04,39,11.10
2010,07,19,04,40,11.10
2010,07,19,04,41,11.10
2010,07,19,04,42,11.10
2010,07,19,04,43,11.10
2010,07,19,04,44,11.10
2010,07,19,04,45,11.10
2010,07,19,04,46,11.10
2010,07,19,04,47,11.00
2010,07,19,04,48,10.90
2010,07,19,04,49,10.90
2010,07,19,04,50,10.90
2010,07,19,04,51,10.90
2010,07,19,04,52,10.90
2010,07,19,04,53,10.90
2010,07,19,04,54,10.80
2010,07,19,04,55,10.80
2010,07,19,04,56,10.80
2010,07,19,04,57,10.80
2010,07,19,04,58,10.80
2010,07,19,04,59,10.70
2010,07,19,05,00,10.70
2010,07,19,05,01,10.60
2010,07,19,05,02,10.60
2010,07,19,05,03,10.60
2010,07,19,05,04,10.60
2010,07,19,05,05,10.70
2010,07,19,05,06,10.70
2010,07,19,05,07,10.70
2010,07,19,05,08,10.70
2010,07,19,05,09,10.70
2010,07,19,05,10,10.60
2010,07,19,05,11,10.60
2010,07,19,05,12,10.60
2010,07,19,05,13,10.60
2010,07,19,05,14,10.60
2010,07,19,05,15,10.60
2010,07,19,05,16,10.60
2010,07,19,05,17,10.60
2010,07,19,05,18,10.50
2010,07,19,05,19,10.40
2010,07,19,05,20,10.40
2010,07,19,05,21,10.50
2010,07,19,05,22,10.60
2010,07,19,05,23,10.60
2010,07,19,05,24,10.40
2010,07,19,05,25,10.40
2010,07,19,05,26,10.40
2010,07,19,05,27,10.40
2010,07,19,05,28,10.40
2010,07,19,05,29,10.30
2010,07,19,05,30,10.30
2010,07,19,05,31,10.30
2010,07,19,05,32,10.20
2010,07,19,05,33,10.20
2010,07,19,05,34,10.30
2010,07,19,05,35,10.20
2010,07,19,05,36,10.20
2010,07,19,05,37,10.20
2010,07,19,05,38,10.20
2010,07,19,05,39,10.20
2010,07,19,05,40,10.30
2010,07,19,05,41,10.40
2010,07,19,05,42,10.40
2010,07,19,05,43,10.60
2010,07,19,05,44,10.60
2010,07,19,05,45,10.70
2010,07,19,05,46,10.70
2010,07,19,05,47,10.70
2010,07,19,05,48,10.70
2010,07,19,05,49,10.70
2010,07,19,05,50,10.70
2010,07,19,05,51,10.70
2010,07,19,05,52,10.60
2010,07,19,05,53,10.60
2010,07,19,05,54,10.50
2010,07,19,05,55,10.40
2010,07,19,05,56,10.40
2010,07,19,05,57,10.50
2010,07,19,05,58,10.60
2010,07,19,05,59,10.60
2010,07,19,06,00,10.70
2010,07,19,06,01,10.80
2010,07,19,06,02,10.80
2010,07,19,06,03,10.90
2010,07,19,06,04,10.90
2010,07,19,06,05,10.90
2010,07,19,06,06,10.90
2010,07,19,06,07,10.90
2010,07,19,06,08,10.90
2010,07,19,06,09,10.90
2010,07,19,06,10,11.00
2010,07,19,06,11,11.10
2010,07,19,06,12,11.10
2010,07,19,06,13,11.10
2010,07,19,06,14,11.10
2010,07,19,06,15,11.10
2010,07,19,06,16,11.20
2010,07,19,06,17,11.20
2010,07,19,06,18,11.20
2010,07,19,06,19,11.30
2010,07,19,06,20,11.30
2010,07,19,06,21,11.40
2010,07,19,06,22,11.40
2010,07,19,06,23,11.40
2010,07,19,06,24,11.50
2010,07,19,06,25,11.60
2010,07,19,06,26,11.60
2010,07,19,06,27,11.70
2010,07,19,06,28,11.80
2010,07,19,06,29,11.80
2010,07,19,06,30,11.80
2010,07,19,06,31,11.90
2010,07,19,06,32,11.90
2010,07,19,06,33,11.90
2010,07,19,06,34,12.00
2010,07,19,06,35,12.00
2010,07,19,06,36,12.10
2010,07,19,06,37,12.10
2010,07,19,06,38,12.20
2010,07,19,06,39,12.20
2010,07,19,06,40,12.30
2010,07,19,06,41,12.30
2010,07,19,06,42,12.30
2010,07,19,06,43,12.40
2010,07,19,06,44,12.40
2010,07,19,06,45,12.50
2010,07,19,06,46,12.50
2010,07,19,06,47,12.60
2010,07,19,06,48,12.60
2010,07,19,06,49,12.70
2010,07,19,06,50,12.70
2010,07,19,06,51,12.80
2010,07,19,06,52,12.80
2010,07,19,06,53,12.80
2010,07,19,06,54,12.80
2010,07,19,06,55,12.90
2010,07,19,06,56,12.90
2010,07,19,06,57,12.90
2010,07,19,06,58,13.00
2010,07,19,06,59,13.00
2010,07,19,07,00,13.00
2010,07,19,07,01,13.10
2010,07,19,07,02,13.10
2010,07,19,07,03,13.10
2010,07,19,07,04,13.20
2010,07,19,07,05,13.20
2010,07,19,07,06,13.20
2010,07,19,07,07,13.20
2010,07,19,07,08,13.30
2010,07,19,07,09,13.30
2010,07,19,07,10,13.30
2010,07,19,07,11,13.30
2010,07,19,07,12,13.30
2010,07,19,07,13,13.30
2010,07,19,07,14,13.40
2010,07,19,07,15,13.40
2010,07,19,07,16,13.50
2010,07,19,07,17,13.50
2010,07,19,07,18,13.50
2010,07,19,07,19,13.60
2010,07,19,07,20,13.60
2010,07,19,07,21,13.60
2010,07,19,07,22,13.70
2010,07,19,07,23,13.70
2010,07,19,07,24,13.70
2010,07,19,07,25,13.70
2010,07,19,07,26,13.70
2010,07,19,07,27,13.80
2010,07,19,07,28,13.80
2010,07,19,07,29,13.80
2010,07,19,07,30,13.80
2010,07,19,07,31,13.80
2010,07,19,07,32,13.80
2010,07,19,07,33,13.90
2010,07,19,07,34,13.90
2010,07,19,07,35,13.90
2010,07,19,07,36,13.90
2010,07,19,07,37,14.00
2010,07,19,07,38,14.00
2010,07,19,07,39,14.00
2010,07,19,07,40,14.00
2010,07,19,07,41,14.00
2010,07,19,07,42,14.00
2010,07,19,07,43,14.00
2010,07,19,07,44,14.10
2010,07,19,07,45,14.10
2010,07,19,07,46,14.10
2010,07,19,07,47,14.10
2010,07,19,07,48,14.10
2010,07,19,07,49,14.10
2010,07,19,07,50,14.10
2010,07,19,07,51,14.10
2010,07,19,07,52,14.10
2010,07,19,07,53,14.20
2010,07,19,07,54,14.20
2010,07,19,07,55,14.20
2010,07,19,07,56,14.20
2010,07,19,07,57,14.20
2010,07,19,07,58,14.20
2010,07,19,07,59,14.20
2010,07,19,08,00,14.20
2010,07,19,08,01,14.20
2010,07,19,08,02,14.30
2010,07,19,08,03,14.30
2010,07,19,08,04,14.40
2010,07,19,08,05,14.40
2010,07,19,08,06,14.50
2010,07,19,08,07,14.50
2010,07,19,08,08,14.60
2010,07,19,08,09,14.60
2010,07,19,08,10,14.60
2010,07,19,08,11,14.70
2010,07,19,08,12,14.70
2010,07,19,08,13,14.80
2010,07,19,08,14,14.80
2010,07,19,08,15,14.80
2010,07,19,08,16,14.70
2010,07,19,08,17,14.70
2010,07,19,08,18,14.70
2010,07,19,08,19,14.80
2010,07,19,08,20,14.80
2010,07,19,08,21,14.80
2010,07,19,08,22,14.80
2010,07,19,08,23,14.80
2010,07,19,08,24,14.80
2010,07,19,08,25,14.80
2010,07,19,08,26,14.90
2010,07,19,08,27,14.90
2010,07,19,08,28,15.00
2010,07,19,08,29,15.00
2010,07,19,08,30,15.00
2010,07,19,08,31,15.00
2010,07,19,08,32,15.00
2010,07,19,08,33,15.00
2010,07,19,08,34,15.10
2010,07,19,08,35,15.10
2010,07,19,08,36,15.20
2010,07,19,08,37,15.20
2010,07,19,08,38,15.20
2010,07,19,08,39,15.20
2010,07,19,08,40,15.20
2010,07,19,08,41,15.20
2010,07,19,08,42,15.20
2010,07,19,08,43,15.30
2010,07,19,08,44,15.30
2010,07,19,08,45,15.30
2010,07,19,08,46,15.30
2010,07,19,08,47,15.30
2010,07,19,08,48,15.30
2010,07,19,08,49,15.30
2010,07,19,08,50,15.40
2010,07,19,08,51,15.50
2010,07,19,08,52,15.50
2010,07,19,08,53,15.60
2010,07,19,08,54,15.60
2010,07,19,08,55,15.70
2010,07,19,08,56,15.70
2010,07,19,08,57,15.70
2010,07,19,08,58,15.70
2010,07,19,08,59,15.70
2010,07,19,09,00,15.70
2010,07,19,09,01,15.70
2010,07,19,09,02,15.80
2010,07,19,09,03,15.80
2010,07,19,09,04,15.80
2010,07,19,09,05,15.80
2010,07,19,09,06,15.80
2010,07,19,09,07,15.80
2010,07,19,09,08,15.80
2010,07,19,09,09,15.90
2010,07,19,09,10,15.90
2010,07,19,09,11,15.90
2010,07,19,09,12,15.90
2010,07,19,09,13,15.90
2010,07,19,09,14,15.90
2010,07,19,09,15,16.10
2010,07,19,09,16,16.10
2010,07,19,09,17,16.10
2010,07,19,09,18,16.20
2010,07,19,09,19,16.20
2010,07,19,09,20,16.20
2010,07,19,09,21,16.10
2010,07,19,09,22,16.10
2010,07,19,09,23,16.10
2010,07,19,09,24,16.20
2010,07,19,09,25,16.20
2010,07,19,09,26,16.20
2010,07,19,09,27,16.20
2010,07,19,09,28,16.20
2010,07,19,09,29,16.20
2010,07,19,09,30,16.20
2010,07,19,09,31,16.20
2010,07,19,09,32,16.30
2010,07,19,09,33,16.30
2010,07,19,09,34,16.30
2010,07,19,09,35,16.40
2010,07,19,09,36,16.40
2010,07,19,09,37,16.40
2010,07,19,09,38,16.40
2010,07,19,09,39,16.40
2010,07,19,09,40,16.40
2010,07,19,09,41,16.40
2010,07,19,09,42,16.40
2010,07,19,09,43,16.40
2010,07,19,09,44,16.40
2010,07,19,09,45,16.40
2010,07,19,09,46,16.40
2010,07,19,09,47,16.40
2010,07,19,09,48,16.40
2010,07,19,09,49,16.50
2010,07,19,09,50,16.60
2010,07,19,09,51,16.70
2010,07,19,09,52,16.80
2010,07,19,09,53,16.80
2010,07,19,09,54,16.80
2010,07,19,09,55,16.70
2010,07,19,09,56,16.70
2010,07,19,09,57,16.60
2010,07,19,09,58,16.50
2010,07,19,09,59,16.40
2010,07,19,10,00,16.50
2010,07,19,10,01,16.60
2010,07,19,10,02,16.60
2010,07,19,10,03,16.60
2010,07,19,10,04,16.60
2010,07,19,10,05,16.70
2010,07,19,10,06,16.70
2010,07,19,10,07,16.60
2010,07,19,10,08,16.60
2010,07,19,10,09,16.60
2010,07,19,10,10,16.60
2010,07,19,10,11,16.70
2010,07,19,10,12,16.70
2010,07,19,10,13,16.70
2010,07,19,10,14,16.80
2010,07,19,10,15,16.80
2010,07,19,10,16,16.80
2010,07,19,10,17,16.90
2010,07,19,10,18,16.90
2010,07,19,10,19,16.90
2010,07,19,10,20,16.90
2010,07,19,10,21,16.90
2010,07,19,10,22,16.90
2010,07,19,10,23,17.00
2010,07,19,10,24,17.00
2010,07,19,10,25,17.00
2010,07,19,10,26,17.00
2010,07,19,10,27,16.90
2010,07,19,10,28,16.80
2010,07,19,10,29,16.70
2010,07,19,10,30,16.60
2010,07,19,10,31,16.60
2010,07,19,10,32,16.50
2010,07,19,10,33,16.40
2010,07,19,10,34,16.40
2010,07,19,10,35,16.50
2010,07,19,10,36,16.60
2010,07,19,10,37,16.60
2010,07,19,10,38,16.60
2010,07,19,10,39,16.70
2010,07,19,10,40,16.70
2010,07,19,10,41,16.70
2010,07,19,10,42,16.70
2010,07,19,10,43,16.60
2010,07,19,10,44,16.40
2010,07,19,10,45,16.30
2010,07,19,10,46,16.20
2010,07,19,10,47,16.10
2010,07,19,10,48,16.20
2010,07,19,10,49,16.30
2010,07,19,10,50,16.40
2010,07,19,10,51,16.40
2010,07,19,10,52,16.50
2010,07,19,10,53,16.60
2010,07,19,10,54,16.70
2010,07,19,10,55,16.80
2010,07,19,10,56,16.90
2010,07,19,10,57,17.00
2010,07,19,10,58,17.00
2010,07,19,10,59,17.00
2010,07,19,11,00,16.90
2010,07,19,11,01,16.90
2010,07,19,11,02,16.80
2010,07,19,11,03,16.80
2010,07,19,11,04,16.80
2010,07,19,11,05,16.80
2010,07,19,11,06,16.80
2010,07,19,11,07,16.80
2010,07,19,11,08,16.80
2010,07,19,11,09,16.90
2010,07,19,11,10,16.90
2010,07,19,11,11,17.00
2010,07,19,11,12,16.90
2010,07,19,11,13,17.00
2010,07,19,11,14,17.00
2010,07,19,11,15,17.00
2010,07,19,11,16,17.00
2010,07,19,11,17,17.00
2010,07,19,11,18,17.10
2010,07,19,11,19,17.20
2010,07,19,11,20,17.20
2010,07,19,11,21,17.30
2010,07,19,11,22,17.40
2010,07,19,11,23,17.50
2010,07,19,11,24,17.50
2010,07,19,11,25,17.60
2010,07,19,11,26,17.60
2010,07,19,11,27,17.60
2010,07,19,11,28,17.60
2010,07,19,11,29,17.70
2010,07,19,11,30,17.70
2010,07,19,11,31,17.70
2010,07,19,11,32,17.70
2010,07,19,11,33,17.80
2010,07,19,11,34,17.80
2010,07,19,11,35,17.90
2010,07,19,11,36,17.90
2010,07,19,11,37,18.00
2010,07,19,11,38,18.10
2010,07,19,11,39,18.20
2010,07,19,11,40,18.20
2010,07,19,11,41,18.20
2010,07,19,11,42,18.20
2010,07,19,11,43,18.10
2010,07,19,11,44,18.00
2010,07,19,11,45,17.90
2010,07,19,11,46,17.90
2010,07,19,11,47,17.90
2010,07,19,11,48,17.90
2010,07,19,11,49,17.80
2010,07,19,11,50,17.80
2010,07,19,11,51,17.90
2010,07,19,11,52,17.90
2010,07,19,11,53,17.90
2010,07,19,11,54,17.90
2010,07,19,11,55,18.10
2010,07,19,11,56,18.30
2010,07,19,11,57,18.40
2010,07,19,11,58,18.40
2010,07,19,11,59,18.40
2010,07,19,12,00,18.40
2010,07,19,12,01,18.40
2010,07,19,12,02,18.40
2010,07,19,12,03,18.50
2010,07,19,12,04,18.40
2010,07,19,12,05,18.40
2010,07,19,12,06,18.30
2010,07,19,12,07,18.20
2010,07,19,12,08,18.20
2010,07,19,12,09,18.20
2010,07,19,12,10,18.30
2010,07,19,12,11,18.30
2010,07,19,12,12,18.30
2010,07,19,12,13,18.20
2010,07,19,12,14,18.20
2010,07,19,12,15,18.20
2010,07,19,12,16,18.20
2010,07,19,12,17,18.20
2010,07,19,12,18,18.30
2010,07,19,12,19,18.30
2010,07,19,12,20,18.40
2010,07,19,12,21,18.50
2010,07,19,12,22,18.60
2010,07,19,12,23,18.70
2010,07,19,12,24,18.80
2010,07,19,12,25,18.90
2010,07,19,12,26,18.80
2010,07,19,12,27,18.70
2010,07,19,12,28,18.60
2010,07,19,12,29,18.60
2010,07,19,12,30,18.60
2010,07,19,12,31,18.70
2010,07,19,12,32,18.80
2010,07,19,12,33,18.80
2010,07,19,12,34,18.70
2010,07,19,12,35,18.70
2010,07,19,12,36,18.70
2010,07,19,12,37,18.70
2010,07,19,12,38,18.80
2010,07,19,12,39,18.80
2010,07,19,12,40,18.90
2010,07,19,12,41,18.90
2010,07,19,12,42,18.90
2010,07,19,12,43,19.00
2010,07,19,12,44,19.10
2010,07,19,12,45,19.10
2010,07,19,12,46,19.10
2010,07,19,12,47,19.10
2010,07,19,12,48,19.10
2010,07,19,12,49,19.10
2010,07,19,12,50,19.10
2010,07,19,12,51,19.10
2010,07,19,12,52,19.20
2010,07,19,12,53,19.20
2010,07,19,12,54,19.30
2010,07,19,12,55,19.30
2010,07,19,12,56,19.40
2010,07,19,12,57,19.30
2010,07,19,12,58,19.30
2010,07,19,12,59,19.20
2010,07,19,13,00,19.30
2010,07,19,13,01,19.30
2010,07,19,13,02,19.40
2010,07,19,13,03,19.50
2010,07,19,13,04,19.60
2010,07,19,13,05,19.70
2010,07,19,13,06,19.80
2010,07,19,13,07,19.80
2010,07,19,13,08,19.90
2010,07,19,13,09,19.90
2010,07,19,13,10,20.10
2010,07,19,13,11,20.10
2010,07,19,13,12,20.10
2010,07,19,13,13,20.20
2010,07,19,13,14,20.10
2010,07,19,13,15,20.00
2010,07,19,13,16,19.90
2010,07,19,13,17,19.90
2010,07,19,13,18,20.00
2010,07,19,13,19,20.10
2010,07,19,13,20,20.20
2010,07,19,13,21,20.20
2010,07,19,13,22,20.20
2010,07,19,13,23,20.20
2010,07,19,13,24,20.30
2010,07,19,13,25,20.40
2010,07,19,13,26,20.40
2010,07,19,13,27,20.40
2010,07,19,13,28,20.30
2010,07,19,13,29,20.30
2010,07,19,13,30,20.40
2010,07,19,13,31,20.40
2010,07,19,13,32,20.40
2010,07,19,13,33,20.40
2010,07,19,13,34,20.40
2010,07,19,13,35,20.30
2010,07,19,13,36,20.30
2010,07,19,13,37,20.20
2010,07,19,13,38,20.20
2010,07,19,13,39,20.20
2010,07,19,13,40,20.20
2010,07,19,13,41,20.20
2010,07,19,13,42,20.20
2010,07,19,13,43,20.30
2010,07,19,13,44,20.40
2010,07,19,13,45,20.60
2010,07,19,13,46,20.60
2010,07,19,13,47,20.70
2010,07,19,13,48,20.70
2010,07,19,13,49,20.60
2010,07,19,13,50,20.50
2010,07,19,13,51,20.40
2010,07,19,13,52,20.40
2010,07,19,13,53,20.30
2010,07,19,13,54,20.40
2010,07,19,13,55,20.50
2010,07,19,13,56,20.70
2010,07,19,13,57,20.90
2010,07,19,13,58,21.10
2010,07,19,13,59,21.20
2010,07,19,14,00,21.10
2010,07,19,14,01,21.00
2010,07,19,14,02,20.90
2010,07,19,14,03,20.80
2010,07,19,14,04,20.80
2010,07,19,14,05,20.60
2010,07,19,14,06,20.50
2010,07,19,14,07,20.30
2010,07,19,14,08,20.20
2010,07,19,14,09,20.20
2010,07,19,14,10,20.00
2010,07,19,14,11,19.90
2010,07,19,14,12,19.90
2010,07,19,14,13,19.90
2010,07,19,14,14,19.90
2010,07,19,14,15,19.90
2010,07,19,14,16,20.00
2010,07,19,14,17,20.10
2010,07,19,14,18,20.20
2010,07,19,14,19,20.30
2010,07,19,14,20,20.30
2010,07,19,14,21,20.30
2010,07,19,14,22,20.50
2010,07,19,14,23,20.60
2010,07,19,14,24,20.70
2010,07,19,14,25,20.80
2010,07,19,14,26,20.80
2010,07,19,14,27,20.70
2010,07,19,14,28,20.80
2010,07,19,14,29,20.80
2010,07,19,14,30,20.90
2010,07,19,14,31,21.00
2010,07,19,14,32,21.10
2010,07,19,14,33,21.10
2010,07,19,14,34,21.20
2010,07,19,14,35,21.10
2010,07,19,14,36,20.90
2010,07,19,14,37,20.90
2010,07,19,14,38,20.90
2010,07,19,14,39,20.90
2010,07,19,14,40,20.90
2010,07,19,14,41,20.90
2010,07,19,14,42,20.80
2010,07,19,14,43,20.70
2010,07,19,14,44,20.60
2010,07,19,14,45,20.60
2010,07,19,14,46,20.50
2010,07,19,14,47,20.50
2010,07,19,14,48,20.60
2010,07,19,14,49,20.50
2010,07,19,14,50,20.50
2010,07,19,14,51,20.40
2010,07,19,14,52,20.30
2010,07,19,14,53,20.30
2010,07,19,14,54,20.30
2010,07,19,14,55,20.30
2010,07,19,14,56,20.20
2010,07,19,14,57,20.10
2010,07,19,14,58,19.90
2010,07,19,14,59,19.70
2010,07,19,15,00,19.60
2010,07,19,15,01,19.60
2010,07,19,15,02,19.60
2010,07,19,15,03,19.60
2010,07,19,15,04,19.60
2010,07,19,15,05,19.60
2010,07,19,15,06,19.60
2010,07,19,15,07,19.60
2010,07,19,15,08,19.60
2010,07,19,15,09,19.70
2010,07,19,15,10,19.80
2010,07,19,15,11,19.80
2010,07,19,15,12,19.80
2010,07,19,15,13,19.90
2010,07,19,15,14,19.80
2010,07,19,15,15,19.80
2010,07,19,15,16,19.80
2010,07,19,15,17,19.80
2010,07,19,15,18,19.80
2010,07,19,15,19,19.80
2010,07,19,15,20,19.80
2010,07,19,15,21,19.80
2010,07,19,15,22,19.80
2010,07,19,15,23,19.80
2010,07,19,15,24,19.80
2010,07,19,15,25,19.80
2010,07,19,15,26,19.90
2010,07,19,15,27,20.00
2010,07,19,15,28,20.10
2010,07,19,15,29,20.20
2010,07,19,15,30,20.30
2010,07,19,15,31,20.30
2010,07,19,15,32,20.40
2010,07,19,15,33,20.50
2010,07,19,15,34,20.50
2010,07,19,15,35,20.50
2010,07,19,15,36,20.60
2010,07,19,15,37,20.60
2010,07,19,15,38,20.50
2010,07,19,15,39,20.50
2010,07,19,15,40,20.40
2010,07,19,15,41,20.50
2010,07,19,15,42,20.60
2010,07,19,15,43,20.70
2010,07,19,15,44,20.80
2010,07,19,15,45,20.90
2010,07,19,15,46,20.90
2010,07,19,15,47,21.00
2010,07,19,15,48,21.00
2010,07,19,15,49,21.00
2010,07,19,15,50,21.00
2010,07,19,15,51,21.00
2010,07,19,15,52,21.00
2010,07,19,15,53,21.00
2010,07,19,15,54,21.10
2010,07,19,15,55,21.10
2010,07,19,15,56,21.00
2010,07,19,15,57,20.90
2010,07,19,15,58,20.90
2010,07,19,15,59,21.00
2010,07,19,16,00,21.00
2010,07,19,16,01,21.10
2010,07,19,16,02,21.20
2010,07,19,16,03,21.30
2010,07,19,16,04,21.30
2010,07,19,16,05,21.40
2010,07,19,16,06,21.50
2010,07,19,16,07,21.70
2010,07,19,16,08,21.80
2010,07,19,16,09,21.90
2010,07,19,16,10,21.90
2010,07,19,16,11,21.80
2010,07,19,16,12,21.80
2010,07,19,16,13,21.60
2010,07,19,16,14,21.40
2010,07,19,16,15,21.30
2010,07,19,16,16,21.20
2010,07,19,16,17,21.20
2010,07,19,16,18,21.10
2010,07,19,16,19,21.00
2010,07,19,16,20,20.90
2010,07,19,16,21,20.80
2010,07,19,16,22,20.80
2010,07,19,16,23,20.90
2010,07,19,16,24,21.00
2010,07,19,16,25,21.00
2010,07,19,16,26,21.10
2010,07,19,16,27,21.20
2010,07,19,16,28,21.30
2010,07,19,16,29,21.30
2010,07,19,16,30,21.20
2010,07,19,16,31,21.30
2010,07,19,16,32,21.30
2010,07,19,16,33,21.30
2010,07,19,16,34,21.30
2010,07,19,16,35,21.30
2010,07,19,16,36,21.40
2010,07,19,16,37,21.50
2010,07,19,16,38,21.60
2010,07,19,16,39,21.60
2010,07,19,16,40,21.60
2010,07,19,16,41,21.60
2010,07,19,16,42,21.60
2010,07,19,16,43,21.60
2010,07,19,16,44,21.60
2010,07,19,16,45,21.60
2010,07,19,16,46,21.60
2010,07,19,16,47,21.60
2010,07,19,16,48,21.60
2010,07,19,16,49,21.60
2010,07,19,16,50,21.70
2010,07,19,16,51,21.70
2010,07,19,16,52,21.80
2010,07,19,16,53,21.90
2010,07,19,16,54,22.00
2010,07,19,16,55,22.00
2010,07,19,16,56,22.10
2010,07,19,16,57,22.10
2010,07,19,16,58,22.00
2010,07,19,16,59,22.10
2010,07,19,17,00,22.00
2010,07,19,17,01,22.00
2010,07,19,17,02,22.00
2010,07,19,17,03,21.90
2010,07,19,17,04,21.80
2010,07,19,17,05,21.80
2010,07,19,17,06,21.70
2010,07,19,17,07,21.70
2010,07,19,17,08,21.80
2010,07,19,17,09,21.80
2010,07,19,17,10,21.80
2010,07,19,17,11,21.80
2010,07,19,17,12,21.80
2010,07,19,17,13,21.80
2010,07,19,17,14,21.80
2010,07,19,17,15,21.90
2010,07,19,17,16,21.90
2010,07,19,17,17,21.90
2010,07,19,17,18,21.90
2010,07,19,17,19,22.00